Вернуться в каталог

COSMOS 970 DEB

АктивенLEO
NORAD 10880·DEBRIS·🇷🇺 Russia

Запущен Dec 21, 1977 с Baikonur Cosmodrome

Loading…

Ближайшие Пролёты (ближайшие 24 часа)

TLE

СвежийSource: Space-Track

Эпоха: Sep 14, 2026, 06:46 UTC

1 10880U 77121AB  26257.28219659  .00000169  00000-0  28790-3 0  9994
2 10880  65.8399 185.9099 0109949 180.5446 342.8898 13.66235022421649

Отслеживайте COSMOS 970 DEB в реальном времени с AllMySat

Download on the App Store